Regional Weather Roundup
Issued by NWS Goodland, KS

Home | Current Version | Previous Version | Graphics & Text | Print | Product List | Glossary On
Versions: 1 2 3 4 5 6 7 8 9 10 11 12 13 14 15 16 17 18 19 20 21 22 23 24 25 26 27 28 29 30 31 32 33 34 35 36 37 38 39 40 41 42 43 44 45 46 47 48 49 50
637
ASUS43 KGLD 242208
RWRGLD

GOODLAND FORECAST AREA HOURLY WEATHER ROUNDUP
NATIONAL WEATHER SERVICE GOODLAND KS
400 PM MDT SAT SEP 24 2016

...OFFICIAL OBSERVATIONS...

CITY           SKY/WX    TMP DP  RH WIND       PRES   REMARKS
GOODLAND KS    SUNNY     75  32  20 VRB5      29.95S
HILL CITY KS   SUNNY     78  49  35 CALM      29.91F
IMPERIAL NEB   SUNNY     75  34  22 W9        29.94S
MCCOOK NEB     SUNNY     77  39  25 CALM      29.91S
AKRON CO       MOSUNNY   72  25  17 NW10      29.99R
BURLINGTON CO  SUNNY     71  31  22 S6        29.98S
LIMON CO       SUNNY     71  19  14 NW8G17    30.00R
$$

...UNOFFICIAL OBSERVATIONS...

CITY           SKY/WX    TMP DP  RH WIND       PRES   REMARKS
COLBY KS       SUNNY     79  43  27 NW3       29.95S
LENORA KS        N/A     76  32  20 MISG        N/A
NORTON KS      SUNNY     79  37  22 CALM      29.89F
SHARON SPRINGS   N/A     79  40  24 CALM        N/A
TRIBUNE KS     SUNNY     79  39  24 SW7       29.96
KIT CARSON CO    N/A     74  35  24 MISG        N/A
$$




USA.gov is the U.S. government's official web portal to all federal, state and local government web resources and services.